Jaffrey, NH

3:28 PM EST on February 24, 2018 (GMT -0500)
Jaffrey Airport-Silver Ranch

Weather History for KAFN - August, 2013

Change the Weather History Date:

Wednesday, August 21, 2013

  Actual Average Record
Temperature  
Mean Temperature 70 °F -  
Max Temperature 84 °F 75 °F 86 °F (2005)
Min Temperature 57 °F 54 °F 42 °F (2007)
Cooling Degree Days 4    
Growing Degree Days 20 (Base 50)    
Moisture  
Dew Point 59 °F    
Average Humidity 71    
Maximum Humidity 96    
Minimum Humidity 42    
Precipitation  
Precipitation 0.00 in - - ()
Sea Level Pressure  
Sea Level Pressure 30.14 in    
Wind  
Wind Speed 1 mph (SW)    
Max Wind Speed 8 mph    
Max Gust Speed -    
Visibility 8 miles    
Events      
Averages and records for this station are not official NWS values.
T = Trace of Precipitation, MM = Missing Value Source: NWS Daily Summary

Daily Weather History Graph

Daily Weather History Graph

Search for Another Location

Airport or City:

Trip Planner

Search our weather history database for the weather conditions in past years. The results will help you decide how hot, cold, wet, or windy it might be!

Date:

Astronomy

Aug. 21, 2013 Rise Set
Actual Time 6:00 AM EDT 7:40 PM EDT
Civil Twilight 5:31 AM EDT 8:10 PM EDT
Nautical Twilight 4:54 AM EDT 8:46 PM EDT
Astronomical Twilight 4:15 AM EDT 9:25 PM EDT
Moon 7:44 PM EDT (8/21) 6:39 AM EDT (8/21)
Length of Visible Light 14h 39m
Length of Day
13h 39m
Full, 100% of the Moon is Illuminated
Aug 21
Full
Aug 28
Last Quarter
Sep 5
New
Sep 12
First Quarter
Sep 19
Full

Hourly Weather History & Observations

Time (EDT) Temp. Heat Index Dew Point Humidity Pressure Visibility Wind Dir Wind Speed Gust Speed Precip Events Conditions
12:52 AM 62.1 °F - 59.0 °F 90% 30.15 in 7.0 mi Calm Calm - N/A   Clear
1:52 AM 60.1 °F - 57.9 °F 93% 30.15 in 6.0 mi South 3.5 mph - N/A   Clear
2:52 AM 59.0 °F - 57.0 °F 93% 30.16 in 5.0 mi Calm Calm - N/A   Clear
3:52 AM 57.9 °F - 55.9 °F 93% 30.16 in 4.0 mi Calm Calm - N/A   Clear
4:52 AM 57.0 °F - 55.9 °F 96% 30.17 in 4.0 mi Calm Calm - N/A   Clear
5:52 AM 57.0 °F - 55.0 °F 93% 30.18 in 5.0 mi Calm Calm - N/A   Clear
6:52 AM 57.0 °F - 55.0 °F 93% 30.19 in 3.0 mi Calm Calm - N/A   Clear
7:52 AM 63.0 °F - 59.0 °F 87% 30.20 in 7.0 mi Calm Calm - N/A   Clear
8:52 AM 69.1 °F - 61.0 °F 75% 30.19 in 10.0 mi Calm Calm - N/A   Clear
9:52 AM 75.9 °F - 59.0 °F 56% 30.19 in 10.0 mi Calm Calm - N/A   Clear
10:52 AM 77.0 °F - 59.0 °F 54% 30.19 in 10.0 mi Variable 5.8 mph - N/A   Clear
11:52 AM 79.0 °F - 59.0 °F 50% 30.18 in 10.0 mi WSW 4.6 mph - N/A   Clear
12:52 PM 81.0 °F 81.1 °F 57.9 °F 45% 30.17 in 10.0 mi West 5.8 mph - N/A   Clear
1:52 PM 82.0 °F 82.1 °F 59.0 °F 45% 30.15 in 10.0 mi Variable 4.6 mph - N/A   Clear
2:52 PM 82.9 °F 82.6 °F 57.9 °F 42% 30.13 in 10.0 mi Calm Calm - N/A   Clear
3:52 PM 82.9 °F 82.8 °F 59.0 °F 44% 30.12 in 10.0 mi SW 8.1 mph - N/A   Clear
4:52 PM 82.9 °F 83.2 °F 60.1 °F 46% 30.11 in 10.0 mi Calm Calm - N/A   Partly Cloudy
5:52 PM 82.9 °F 82.6 °F 57.9 °F 42% 30.10 in 10.0 mi West 5.8 mph - N/A   Clear
6:52 PM 80.1 °F 80.7 °F 59.0 °F 48% 30.09 in 10.0 mi Variable 3.5 mph - N/A   Clear
7:52 PM 73.0 °F - 61.0 °F 66% 30.09 in 10.0 mi South 3.5 mph - N/A   Clear
8:52 PM 66.9 °F - 63.0 °F 87% 30.10 in 10.0 mi Calm Calm - N/A   Clear
9:52 PM 64.0 °F - 61.0 °F 90% 30.09 in 8.0 mi Calm Calm - N/A   Clear
10:52 PM 64.0 °F - 60.1 °F 87% 30.08 in 7.0 mi Calm Calm - N/A   Clear
11:52 PM 63.0 °F - 60.1 °F 90% 30.07 in 6.0 mi Calm Calm - N/A   Clear